Location: Alexandria
(38.8050°N, 77.0470°W)
Time: 02:25:09
(UTC-05:00)

ISS - Pass Details

Date: 11 November 2017
Orbit: 402 x 407 km, 51.6° (Epoch: 22 November)

Event Time Altitude Azimuth Distance (km) Brightness Sun altitude
Exits shadow 05:20:31 10° 354° (N) 1,474 -1.1 -16.9°
Reaches altitude 10° 05:20:40 10° 357° (N) 1,456 -1.1 -16.9°
Maximum altitude 05:21:32 11° 12° (NNE) 1,411 -1.1 -16.7°
Drops below altitude 10° 05:22:23 10° 28° (NNE) 1,456 -0.8 -16.6°
Sets 05:25:55 0° 68° (ENE) 2,314 1.0 -15.9°
